Flag for Argentina Weather past 2 weeks in Bahía Blanca, Buenos Aires, Argentina

Now
45 °F

Passing clouds.


Feels Like: 39 °F
Forecast: 31 / 54 °F
Wind: 12 mph from Southwest

Location: Mar Del Plata Aerodrome

Current Time: Jul 3, 2015 at 10:41:15 PM

Latest Report: Jul 3, 2015 at 10:00 PM


Visibility: N/A

Pressure: 30.15 "Hg

Humidity: 61%

Dew point: 32 °F

Location of Bahía BlancaLocation

Historic Weather in Bahía Blanca — Graph

°F

Bahía Blanca temperature yesterday

Maximum temperature yesterday: 50 °F (at 1:00 PM)
Minimum temperature yesterday: 39 °F (at 12:00 AM)
Average temperature yesterday: 46 °F

Past Weeks' High & Low Weather Summary

 TemperatureHumidityPressure
High64 °F (Jun 28, 1:00 PM)100% (Jun 23, 5:00 AM)30.51 "Hg (Jun 23, 5:00 AM)
Low25 °F (Jun 19, 7:00 AM)37% (Jun 19, 3:00 PM)29.74 "Hg (Jun 29, 3:00 PM)
Average47 °F82%30.12 "Hg
* Reported Jun 18 9:00 PM — Jul 3 9:00 PM, Bahía Blanca, Weather by CustomWeather, © 2015

Note: Actual official high and low records may vary slightly from our data, if they occured in-between our weather recording intervals... More about our weather records

Advertising

Bahía Blanca weather history for previous 24 hours

 ConditionsComfort  
Time TempWeatherWind HumidityBarometerVisibility
9:00 PM
Fri, Jul 3
45 °FPartly cloudy.14 mph76%30.12 "HgN/A
7:00 PM45 °FFog.12 mph81%30.09 "Hg2 mi
6:00 PM45 °FDrizzle. Fog.12 mph81%30.07 "Hg4 mi
5:00 PM45 °FDrizzle. Fog.12 mph87%30.04 "Hg2 mi
4:00 PM46 °FSprinkles. Broken clouds.15 mph82%30.01 "Hg4 mi
3:00 PM48 °FRain showers. Broken clouds.15 mph76%29.98 "Hg2 mi
2:00 PM48 °FRain showers. Scattered clouds.17 mph82%29.98 "Hg3 mi
1:00 PM48 °FRain showers. Broken clouds.15 mph87%29.98 "Hg2 mi
12:00 PM50 °FSprinkles. Scattered clouds.14 mph76%29.98 "Hg4 mi
11:00 AM50 °FScattered clouds.12 mph71%29.98 "Hg6 mi
10:00 AM48 °FScattered clouds.7 mph82%29.98 "Hg5 mi
9:00 AM48 °FDrizzle. Partly sunny.6 mph87%29.98 "Hg5 mi
8:00 AM48 °FDrizzle. Mostly cloudy.8 mph87%29.95 "Hg1 mi
7:00 AM48 °FDrizzle. Mostly cloudy.9 mph87%29.95 "Hg1 mi
6:00 AM46 °FLight rain. Mostly cloudy.3 mph93%29.92 "Hg4 mi
5:00 AM46 °FLight rain. Mostly cloudy.6 mph93%29.92 "Hg4 mi
4:00 AM46 °FRain. Mostly cloudy.3 mph93%29.95 "Hg4 mi
3:00 AM46 °FRain. Mostly cloudy.3 mph93%29.95 "Hg4 mi
2:00 AM46 °FRain. Mostly cloudy.8 mph87%29.98 "Hg4 mi
1:00 AM32 °FRain. Mostly cloudy.3 mph100%29.98 "Hg4 mi
12:00 AM48 °FMostly cloudy.5 mph87%29.98 "Hg4 mi
11:00 PM
Thu, Jul 2
48 °FLight rain. Mostly cloudy.7 mph87%29.98 "Hg4 mi
10:00 PM46 °FRain. Mostly cloudy.15 mph87%30.01 "Hg4 mi
Weather by CustomWeather, © 2015

See weather overviewHow to use our weather pages